Location: Newark
(33.6333°S, 78.8500°W)
Time: 12:27:56
(UTC+00:00)

Tiros 1 despin weight - Pass Details

Date: 21 September 2019
Orbit: 593 x 643 km, 48.2° (Epoch: 20 October)

Event Time Altitude Azimuth Distance (km) Brightness Sun altitude
Rises 06:56:09 0° 254° (WSW) 2,907 - -48.6°
Reaches altitude 10° 06:59:17 10° 232° (SW) 2,014 - -48.2°
Maximum altitude 07:02:11 16° 193° (SSW) 1,658 - -47.7°
Drops below altitude 10° 07:05:06 10° 154° (SSE) 2,037 - -47.3°
Exits shadow 07:07:26 - 137° (SE) 2,681 ? -47.0°
Sets 07:08:17 0° 132° (SE) 2,956 ? -46.8°
